User: anonymous   Login
Location: Unspecified
(0.0000°N, 0.0000°E)
Time: 19:55:25
(UTC+00:00)
Language:

Geos 2 (Explorer 36) - Orbit

View from above orbital plane
View from above orbital plane
View from above satellite
View from above satellite

Ground track
Ground track

The orbit data is extracted from the following two-line orbital elements,

1  3093U 68002A   18016.95219128 -.00000107 +00000-0 -10851-3 0  9992
2  3093 105.7950 073.3213 0318262 053.6074 017.8298 12.83529119343039
Epoch (UTC): 16 January 2018 22:51:09
Eccentricity: 0.0318262
inclination: 105.7950°
perigee height: 1082 km
apogee height: 1572 km
right ascension of ascending node: 73.3213°
argument of perigee: 53.6074°
revolutions per day: 12.83529119
mean anomaly at epoch: 17.8298°
orbit number at epoch: 34303

The dashed part of the orbit path shows where the satellite is in the earth's shadow,  

DLR